METEOR M2-4

导读

METEOR M2-4(流星-M2-4)是独联体(CIS)区域内俄罗斯研制的新一代极轨气象卫星,于北京时间2024年2月29日13:43,由联盟2.1b运载火箭从东方航天发射场发射升空。卫星运行于800余千米的太阳同步轨道,接替流星-3M系列,承担地球自然资源探测、近地空间太阳物理监测任务,还配备国际搜救系统设备,为全球气象预报与空间环境研究提供数据支撑。

基本信息
目录编号:
59051
目录名称:
METEOR M2-4
国际标识:
2024-039A
轨道中心:
EARTH
卫星名称:
METEOR M2-4
卫星全名:
--
卫星状态:
在轨 (已飞行834 天)
发射日期:
2024-02-29 UTC
国别 :
俄罗斯(独联体) (CIS)
星等 :
--
轨道信息
数据来源 国际轨道数据 AOE轨道数据
星历时间 2026-06-12T14:13:40+0800
13小时前
查看轨道信息
2026-06-06T10:00:00+0800
6天前
查看轨道信息
半长轴 7195.287km 7195.286km
偏心率 0.0007005 0.0006514
轨道倾角 98.701° 98.702°
近地点辐角 174.870° 191.894°
升交点赤经 122.620° 116.522°
平近点角 185.256° 239.585°
近地点 812.109km 812.461km
远地点 822.191km 821.837km
周期 101.235分钟 101.235分钟
每日圈数 14.224291 14.224294
详细信息
使用方式:
暂无
2D轨道图
3D轨道图
轨道高度分析图
轨道倾角分析图
轨道综合分析图
查看轨道综合分析图